This is the latest recevied weather packets stored in our database for station/object KD4KKF. If no packets are shown the sender has not sent any weather packets the latest 1 day(s).
| Time | Temp. | Humidity | Pressure | Rain* | Wind** | Luminosity | Snow |
|---|---|---|---|---|---|---|---|
| 1778081038 | 22.78° C | 92% | 1011.9 hPa | 0 mm | - | 366 W/m² | - |
| 1778080433 | 22.22° C | 93% | 1011.9 hPa | 0 mm | - | 144 W/m² | - |
| 1778079220 | 22.78° C | 91% | 1011.8 hPa | 0 mm | - | 59 W/m² | - |
| 1778078918 | 22.22° C | 92% | 1011.9 hPa | 0 mm | - | 235 W/m² | - |
| 1778078614 | 22.22° C | 92% | 1011.7 hPa | 0 mm | - | 139 W/m² | - |
| 1778078009 | 22.22° C | 91% | 1011.7 hPa | 0 mm | - | 207 W/m² | - |
| 1778077405 | 22.22° C | 93% | 1011.8 hPa | 0 mm | - | 148 W/m² | - |
| 1778074679 | 21.11° C | 94% | 1011.8 hPa | 0 mm | - | 128 W/m² | - |
| 1778073468 | 20.56° C | 95% | 1011.7 hPa | 0 mm | - | 70 W/m² | - |
| 1778072860 | 20.56° C | 96% | 1011.8 hPa | 0 mm | - | 75 W/m² | - |
| 1778072557 | 20.56° C | 96% | 1012.1 hPa | 0 mm | - | 66 W/m² | - |
| 1778071953 | 20.56° C | 97% | 1012.1 hPa | 0 mm | - | 7 W/m² | - |
| 1778070138 | 20.56° C | 96% | 1012.1 hPa | 0 mm | - | 4 W/m² | - |
| 1778069836 | 20.56° C | 96% | 1011.6 hPa | 0 mm | - | 4 W/m² | - |
| 1778069230 | 20° C | 97% | 1011.5 hPa | 0 mm | - | 5 W/m² | - |
| 1778066809 | 20° C | 97% | 1010.6 hPa | 0 mm | - | 3 W/m² | - |
| 1778065297 | 20° C | 96% | 1010.6 hPa | 0 mm | - | 0 W/m² | - |
| 1778064993 | 20° C | 96% | 1010.7 hPa | 0 mm | - | 0 W/m² | - |
| 1778063783 | 20° C | 96% | 1010.3 hPa | 0 mm | - | 0 W/m² | - |
| 1778063178 | 20° C | 95% | 1010.4 hPa | 0 mm | - | 0 W/m² | - |
| 1778062875 | 20° C | 95% | 1010.2 hPa | 0 mm | - | 0 W/m² | - |
| 1778061967 | 20° C | 95% | 1009.9 hPa | 0 mm | - | 0 W/m² | - |
| 1778061363 | 20° C | 94% | 1009.9 hPa | 0 mm | - | 0 W/m² | - |
| 1778060757 | 20° C | 94% | 1009.9 hPa | 0 mm | - | 0 W/m² | - |
| 1778060153 | 20.56° C | 93% | 1009.7 hPa | 0 mm | - | 0 W/m² | - |
* Rain latest hour (hover to see other rain measurements)
** Current wind speed in m/s (hover to see current wind gust speed)